This demonstration page uses our WeatherBlox Daily Observations layout. Learn more.

Left ArrowRight Arrow

Hourly Observations for November 4, 2016

Temp ( °F °C ) Dew Point ( °F °C ) Humidity (%) Winds ( mph kmh ) Pressure ( in mb ) Visibility ( mi km ) Precip ( " mm )
12:53 am 00:53 Cloudy 63 17.2 55 12.8 76 76 E 13 20 30.24 1024 10 16 0.00 0.00
1:53 am 01:53 Cloudy 64 17.8 55 12.8 73 73 E 10 17 30.25 1024 10 16 0.00 0.00
2:53 am 02:53 Cloudy 63 17.2 55 12.8 76 76 ENE 9 15 30.24 1024 10 16 0.00 0.00
3:53 am 03:53 Cloudy 63 17.2 55 12.8 76 76 ENE 13 20 30.24 1024 10 16 0.00 0.00
4:53 am 04:53 Cloudy 62 16.7 55 12.8 78 78 ENE 13 20 30.24 1024 10 16 0.00 0.00
5:53 am 05:53 Cloudy 61 16.1 55 12.8 81 81 E 10 17 30.26 1025 10 16 0.00 0.00
6:37 am 06:37 Cloudy 60 15.6 55 12.8 84 84 ENE 9 15 30.30 1026 10 16 0.00 0.00
6:53 am 06:53 Cloudy 60 15.6 55 12.8 84 84 ENE 8 13 30.27 1025 10 16 0.00 0.00
7:53 am 07:53 Cloudy 60 15.6 55 12.8 84 84 E 8 13 30.27 1025 10 16 0.00 0.00
8:53 am 08:53 Cloudy 60 15.6 55 12.8 84 84 ENE 7 11 30.29 1026 10 16 0.00 0.00
9:53 am 09:53 Cloudy 61 16.1 55 12.8 81 81 undefined N/A 30.30 1026 10 16 0.00 0.00
10:10 am 10:10 Cloudy 61 16 55 13 83 83 undefined N/A 30.33 1027 9 14 0.00 0.00
10:18 am 10:18 Cloudy 61 16 55 13 83 83 undefined N/A 30.33 1027 9 14 0.00 0.00
10:53 am 10:53 Cloudy 62 16.7 55 12.8 78 78 undefined N/A 30.31 1027 8 13 0.00 0.00
11:00 am 11:00 Cloudy 63 17 55 13 77 77 undefined N/A 30.30 1026 8 13 0.00 0.00
11:53 am 11:53 Cloudy 63 17.2 55 12.8 76 76 E 12 19 30.31 1026 10 16 0.00 0.00
12:53 pm 12:53 Cloudy 64 17.8 55 12.8 73 73 undefined N/A 30.29 1026 10 16 0.00 0.00
1:37 pm 13:37 Cloudy 65 18.3 55 12.8 70 70 E 12 19 30.27 1025 10 16 0.00 0.00
1:53 pm 13:53 Cloudy 66 18.9 55 12.8 68 68 E 13 20 30.24 1024 10 16 0.00 0.00
2:53 pm 14:53 Cloudy 66 18.9 55 12.8 68 68 E 13 20 30.22 1023 10 16 0.00 0.00
3:19 pm 15:19 Cloudy 66 18.9 55 12.8 68 68 ESE 10 17 30.18 1022 9 14 0.00 0.00
3:53 pm 15:53 Cloudy 66 18.9 55 12.8 68 68 ESE 13 20 30.19 1023 10 16 0.00 0.00
4:53 pm 16:53 Cloudy 66 18.9 55 12.8 68 68 E 13 20 30.18 1022 10 16 0.00 0.00
5:17 pm 17:17 Cloudy 66 18.9 55 12.8 68 68 E 12 19 30.15 1021 10 16 0.00 0.00
5:53 pm 17:53 Cloudy 65 18.3 55 12.8 70 70 E 14 22 30.18 1022 10 16 0.00 0.00
6:21 pm 18:21 Cloudy 65 18.3 55 12.8 70 70 E 13 20 30.18 1022 10 16 0.00 0.00
6:30 pm 18:30 Cloudy 64 18 55 13 73 73 E 14 22 30.18 1022 10 16 0.00 0.00
6:53 pm 18:53 Cloudy 64 17.8 55 12.8 73 73 E 13 20 30.18 1022 10 16 0.00 0.00
7:53 pm 19:53 Cloudy 63 17.2 55 12.8 76 76 E 10 17 30.18 1022 10 16 0.00 0.00
8:45 pm 20:45 Cloudy 63 17.2 55 12.8 76 76 E 9 15 30.18 1022 10 16 0.00 0.00
8:53 pm 20:53 Cloudy 63 17.2 55 12.8 76 76 E 8 13 30.21 1023 10 16 0.00 0.00
9:06 pm 21:06 Cloudy 63 17 55 13 77 77 E 8 13 30.21 1023 10 16 0.00 0.00
9:33 pm 21:33 Cloudy 63 17.2 55 12.8 76 76 E 9 15 30.21 1023 10 16 0.00 0.00
9:53 pm 21:53 Cloudy 63 17.2 55 12.8 76 76 E 10 17 30.22 1023 10 16 0.00 0.00
10:53 pm 22:53 Cloudy 63 17.2 56 13.3 78 78 E 8 13 30.21 1023 10 16 0.00 0.00
11:53 pm 23:53 Cloudy 62 16.7 56 13.3 80 80 E 9 15 30.20 1023 10 16 0.00 0.00

Powered by AerisWeather